Wind_Speed
6 6 5 5 5 6 7 7 8 9 9 10 11 12 12 13 13 14 14 14 14 14 14 14 13 14 14 14 14 13 14 14 14 13 12 12 12 12 12 12 12 11 11
7 6 6 6 7 8 8 8 9 10 10 11 11 12 13 13 14 15 15 15 15 15 15 15 15 15 15 15 15 15 14 14 14 14 13 13 13 12 12 12 13 13 12
7 7 8 8 8 9 10 10 11 12 12 12 12 13 13 14 15 16 16 16 16 16 16 16 16 17 17 17 16 16 16 15 15 15 14 14 14 13 13 13 14 14 13
8 8 9 10 10 11 11 12 12 13 13 14 13 14 15 15 16 16 16 16 16 16 17 17 17 18 18 17 17 17 17 16 17 16 15 15 15 14 14 14 14 15 15
9 10 10 11 11 12 12 12 13 13 14 14 14 15 15 16 16 16 16 17 17 17 17 18 18 19 19 19 18 18 18 18 18 17 17 16 16 16 16 16 16 16 16
11 12 12 12 12 12 13 13 13 14 14 15 15 16 17 17 17 17 17 17 17 18 18 18 19 19 19 19 19 19 19 19 19 18 17 17 17 17 18 17 17 17 17
12 12 12 12 12 13 14 14 14 15 15 16 17 17 18 18 18 18 18 18 18 18 19 19 20 20 20 20 21 21 21 20 19 19 19 18 18 19 19 18 18 18 19
11 12 13 13 12 13 14 15 15 16 17 17 17 18 18 18 18 18 18 18 19 20 20 20 21 21 21 21 22 22 21 21 21 19 19 20 20 20 20 20 19 19 20
12 12 13 13 13 14 14 15 16 16 17 17 17 18 18 18 19 19 19 20 20 20 20 21 21 21 21 21 22 22 22 22 22 21 21 21 21 22 22 22 21 21 21
13 13 13 13 13 14 15 15 16 16 17 18 18 19 19 19 20 20 20 21 21 21 21 21 22 22 22 22 22 23 23 23 23 23 22 23 23 23 23 23 23 23 22
13 13 13 14 14 14 15 16 16 17 17 18 19 20 20 20 20 21 21 21 21 20 21 22 22 22 23 23 23 23 23 23 23 24 23 23 24 25 25 25 25 24 23
15 14 14 14 15 15 15 16 17 18 18 19 20 20 20 21 21 21 21 21 21 21 22 22 23 23 23 23 23 24 24 24 24 24 24 24 24 25 25 25 25 25 25
15 15 14 15 15 16 16 17 18 18 19 20 20 20 21 21 21 22 22 22 22 22 23 23 23 24 24 24 24 24 24 25 25 25 25 25 25 25 25 25 26 27 26
14 14 14 15 15 15 16 17 17 18 18 20 20 21 22 22 22 22 23 23 23 23 24 24 24 24 25 25 25 25 25 25 25 25 24 25 25 25 26 26 26 27 27
15 15 16 16 16 16 17 17 18 18 20 21 21 21 21 22 22 22 23 23 24 24 24 25 25 25 25 26 25 25 24 25 25 25 24 25 26 26 26 27 28 28 28
16 17 17 17 17 17 16 18 19 20 21 22 21 21 21 22 23 23 24 25 25 25 25 25 25 25 25 25 25 25 25 25 25 26 26 26 26 26 27 28 28 29 30
17 17 18 18 18 18 18 18 19 20 21 21 21 22 22 22 23 24 25 26 26 25 25 25 26 26 25 25 25 25 25 25 26 26 26 26 26 27 27 27 28 28 29
17 18 18 19 19 19 19 19 20 20 20 21 22 23 23 23 24 25 25 26 26 26 25 25 25 26 26 26 25 25 26 26 26 26 27 27 27 27 28 28 28 29 30
17 18 19 19 19 20 20 20 20 21 22 22 23 24 24 25 25 25 25 25 25 25 25 25 25 26 25 26 26 26 26 26 26 27 27 27 28 28 28 28 29 30 30
18 19 19 19 20 21 21 21 21 22 22 23 24 24 26 26 26 26 26 26 25 25 25 25 25 25 25 26 25 26 26 26 26 26 27 27 28 28 28 29 29 30 30
19 20 20 20 20 21 22 22 22 22 23 23 24 25 26 27 26 27 27 27 27 26 25 25 26 26 26 26 26 26 26 26 27 27 27 28 28 29 30 30 30 31 31
20 20 21 21 21 22 23 23 23 23 23 22 24 25 27 27 26 26 26 27 27 27 26 26 26 26 26 27 26 26 25 26 27 27 27 28 29 30 31 31 30 31 31
21 20 21 21 22 22 22 23 24 23 23 23 24 25 26 25 25 25 26 26 26 26 26 26 25 25 26 27 26 26 25 26 27 27 28 28 29 29 30 30 30 30 31
20 19 20 21 21 22 22 23 23 23 23 24 25 26 26 26 26 26 26 25 25 25 25 24 24 25 25 25 25 25 26 26 26 26 27 28 28 28 28 29 29 30 31
20 19 20 21 22 22 22 22 22 23 24 24 25 25 26 26 26 25 24 23 23 24 24 24 23 23 23 24 24 25 26 26 27 27 27 27 27 27 27 27 28 29 30
20 20 21 22 23 23 23 23 23 23 23 24 24 25 26 25 25 23 23 23 22 22 23 22 22 22 22 22 23 23 24 25 27 27 26 26 26 26 26 26 26 26 28
Wind_Direction
326 330 330 317 311 306 304 301 301 302 301 302 304 303 301 301 302 302 302 302 300 300 299 298 297 294 291 289 286 284 282 280 276 273 271 268 267 265 262 258 257 256 254
322 319 315 308 303 301 302 302 300 299 297 298 300 300 300 299 300 300 300 299 299 298 297 296 295 294 292 288 285 283 281 279 277 274 271 267 266 265 262 259 258 257 256
314 310 306 302 296 296 296 298 297 297 296 293 296 298 297 296 296 297 297 298 297 296 295 294 294 294 293 288 284 282 281 279 277 275 271 268 266 265 263 261 258 256 256
304 302 301 297 291 292 293 291 291 292 293 289 290 293 293 293 292 293 294 296 295 294 293 292 291 291 290 288 286 284 282 280 278 275 271 268 267 266 264 262 258 257 255
300 299 300 297 292 292 292 290 290 291 291 290 289 291 291 290 290 291 292 292 292 291 291 290 289 289 287 285 285 284 282 280 279 275 271 269 266 266 265 261 257 257 256
294 296 297 296 295 292 292 292 292 292 291 290 290 290 290 290 289 288 288 289 289 289 289 287 287 287 284 285 284 283 281 279 278 275 271 268 265 265 263 260 258 256 256
290 293 296 296 295 293 293 293 293 292 292 292 292 292 291 290 289 287 287 288 287 288 289 287 287 285 286 285 284 282 280 278 276 274 271 268 265 263 262 259 258 257 255
296 295 292 292 294 295 293 292 293 293 292 292 294 293 292 293 291 289 289 290 288 288 287 286 285 286 286 285 284 281 279 278 275 273 270 267 264 262 262 262 261 260 255
297 296 291 290 293 294 294 294 294 293 292 292 292 292 291 292 291 290 291 291 289 289 286 285 284 285 286 284 283 281 279 277 274 271 270 267 264 263 261 262 262 261 258
293 291 294 295 295 293 292 292 293 294 294 293 291 290 289 290 291 292 291 291 290 290 288 286 285 285 284 283 282 279 277 277 275 273 270 267 264 263 262 262 263 261 259
293 293 292 294 294 292 291 294 292 291 292 291 289 290 290 291 291 292 292 291 291 289 289 288 287 284 283 281 280 278 278 277 275 273 269 267 265 264 263 262 262 260 260
292 293 290 292 292 293 294 295 296 294 290 293 291 292 294 293 291 291 292 292 293 292 291 291 287 284 283 282 279 278 277 275 274 272 268 267 266 264 262 262 262 261 260
289 291 289 293 292 294 294 295 296 295 296 295 293 294 296 295 292 291 291 291 292 291 291 291 289 287 286 284 280 279 279 277 273 271 269 268 266 264 263 262 262 260 259
289 292 295 293 292 291 290 291 292 295 294 295 295 296 296 295 293 292 293 293 291 291 292 291 290 288 285 283 280 279 280 280 275 271 269 268 266 264 263 262 262 260 259
291 291 292 295 297 292 290 292 293 294 295 295 296 297 296 296 295 293 293 292 290 291 291 291 289 288 285 281 279 279 279 279 277 272 269 268 266 266 265 263 261 260 258
296 294 296 300 300 299 300 300 299 299 299 298 299 298 297 295 294 292 293 292 291 290 289 289 288 287 285 281 279 277 278 277 277 274 271 270 268 267 267 265 263 261 259
297 299 301 302 303 304 304 302 301 303 302 301 300 299 298 297 295 292 291 291 290 289 290 290 289 286 283 281 277 275 276 276 275 273 271 271 271 269 267 266 264 262 261
297 298 300 300 302 303 301 302 302 301 300 299 299 299 299 298 296 295 293 291 289 288 288 290 290 288 285 282 278 277 276 275 273 272 271 271 270 269 269 268 265 262 261
294 296 298 299 301 302 301 301 301 299 298 299 299 300 300 299 297 295 294 291 289 289 288 288 288 289 287 284 280 278 277 275 273 272 271 271 270 269 268 268 266 263 262
296 297 297 299 302 301 302 303 302 301 300 299 299 299 302 301 297 296 295 292 290 289 287 286 288 288 286 284 282 281 279 277 276 274 271 271 271 270 269 268 267 264 262
296 298 298 301 302 301 303 303 303 302 301 299 298 300 300 300 299 298 297 292 292 289 288 287 286 286 286 284 282 280 277 277 277 276 275 273 272 270 269 267 267 265 263
297 297 299 300 301 301 301 302 302 303 302 300 301 303 302 301 300 300 299 296 296 295 293 290 286 285 285 285 283 280 278 279 280 279 277 275 273 271 269 267 267 265 263
300 299 300 302 302 302 303 304 305 303 302 303 302 302 303 303 302 301 299 299 298 299 296 291 288 286 286 286 286 284 281 280 280 280 278 277 276 273 271 268 267 265 264
301 299 301 304 304 305 305 305 304 304 304 306 305 303 304 302 300 300 300 299 299 300 298 295 292 289 289 289 289 286 284 282 282 281 281 279 278 275 272 271 269 267 263
299 297 300 302 304 304 303 304 304 305 305 306 306 306 307 306 303 301 301 300 300 300 299 297 294 291 292 292 292 289 287 285 284 282 281 281 279 277 275 272 270 268 264
298 297 298 300 302 303 303 304 304 305 306 306 306 307 309 308 306 306 303 302 302 301 300 297 295 295 296 297 296 293 290 289 287 286 284 281 280 279 277 275 274 270 266
Height
5902 5901 5901 5901 5901 5901 5900 5900 5899 5899 5898 5897 5896 5896 5895 5894 5893 5892 5891 5890 5889 5888 5887 5886 5885 5884 5882 5881 5880 5879 5878 5878 5877 5876 5876 5875 5875 5875 5874 5874 5874 5874 5874
5901 5901 5900 5900 5900 5900 5899 5899 5898 5897 5897 5896 5895 5894 5893 5893 5892 5890 5889 5888 5887 5886 5885 5884 5882 5881 5880 5879 5878 5877 5876 5875 5874 5874 5873 5873 5872 5872 5872 5871 5871 5871 5871
5900 5900 5899 5899 5899 5898 5898 5897 5897 5896 5895 5894 5893 5892 5892 5891 5890 5889 5887 5886 5885 5884 5883 5881 5880 5879 5877 5876 5875 5874 5873 5872 5871 5871 5870 5870 5869 5869 5869 5869 5869 5869 5869
5899 5898 5898 5898 5897 5897 5896 5896 5895 5894 5893 5892 5891 5890 5889 5889 5888 5886 5885 5884 5883 5881 5880 5878 5877 5876 5874 5873 5872 5871 5870 5869 5868 5867 5867 5866 5866 5866 5866 5865 5865 5865 5866
5898 5897 5896 5896 5895 5895 5894 5893 5892 5892 5891 5890 5889 5888 5887 5886 5885 5884 5883 5881 5880 5879 5877 5875 5874 5873 5871 5870 5869 5867 5866 5865 5865 5864 5863 5863 5863 5862 5862 5862 5862 5862 5862
5896 5895 5894 5894 5893 5892 5892 5891 5890 5889 5888 5887 5886 5885 5884 5883 5882 5881 5880 5878 5877 5875 5873 5872 5870 5869 5868 5866 5865 5864 5863 5862 5861 5860 5860 5860 5859 5859 5858 5858 5858 5858 5858
5893 5893 5892 5891 5891 5890 5889 5888 5887 5887 5885 5884 5883 5882 5881 5880 5878 5877 5876 5875 5873 5872 5870 5868 5867 5865 5863 5862 5861 5860 5859 5858 5857 5857 5856 5855 5855 5854 5854 5854 5854 5854 5854
5891 5890 5889 5889 5888 5888 5887 5886 5885 5884 5882 5881 5880 5879 5878 5876 5875 5873 5872 5870 5869 5867 5866 5864 5863 5861 5860 5858 5857 5856 5854 5853 5853 5852 5852 5851 5851 5851 5850 5849 5850 5850 5850
5889 5888 5887 5886 5886 5885 5884 5883 5882 5881 5879 5878 5877 5875 5874 5872 5871 5869 5868 5866 5865 5863 5861 5860 5858 5857 5855 5854 5852 5851 5850 5849 5848 5848 5847 5847 5846 5846 5846 5845 5845 5846 5846
5885 5885 5884 5883 5883 5882 5881 5880 5878 5877 5876 5874 5873 5871 5870 5868 5866 5865 5863 5861 5860 5858 5856 5855 5853 5852 5850 5848 5847 5846 5845 5844 5843 5842 5842 5842 5841 5841 5841 5840 5841 5841 5841
5882 5882 5881 5880 5879 5878 5877 5876 5875 5873 5872 5870 5868 5867 5865 5864 5862 5860 5858 5856 5854 5852 5851 5849 5848 5846 5844 5843 5842 5840 5839 5838 5837 5837 5836 5836 5836 5835 5835 5835 5835 5836 5836
5879 5879 5877 5877 5875 5874 5873 5872 5871 5869 5867 5866 5864 5862 5860 5859 5857 5855 5853 5851 5849 5847 5845 5844 5842 5840 5839 5837 5836 5834 5833 5833 5832 5831 5830 5830 5830 5830 5829 5829 5830 5830 5830
5876 5875 5874 5873 5872 5871 5869 5868 5866 5864 5863 5862 5860 5858 5855 5853 5852 5850 5848 5846 5844 5842 5840 5838 5837 5835 5833 5831 5830 5828 5827 5827 5826 5825 5824 5824 5823 5823 5823 5823 5823 5824 5824
5872 5872 5871 5870 5868 5867 5866 5864 5862 5861 5859 5857 5855 5853 5851 5848 5847 5845 5843 5841 5839 5837 5835 5833 5831 5829 5827 5825 5824 5822 5821 5821 5820 5819 5818 5818 5817 5817 5817 5817 5817 5817 5818
5868 5868 5867 5866 5865 5863 5861 5860 5858 5856 5854 5852 5850 5848 5845 5843 5841 5839 5837 5835 5833 5831 5829 5827 5825 5823 5821 5819 5817 5816 5815 5814 5813 5812 5812 5811 5811 5810 5810 5810 5810 5810 5811
5864 5863 5862 5861 5859 5857 5856 5854 5852 5851 5849 5847 5845 5842 5840 5838 5836 5833 5831 5829 5827 5825 5823 5821 5819 5817 5815 5813 5811 5810 5808 5807 5806 5805 5805 5804 5804 5803 5803 5803 5803 5803 5803
5860 5859 5858 5857 5855 5853 5851 5849 5847 5845 5843 5842 5839 5837 5835 5832 5830 5827 5825 5823 5820 5818 5816 5814 5812 5810 5808 5806 5805 5803 5802 5801 5799 5798 5798 5797 5796 5796 5796 5795 5795 5795 5795
5857 5855 5854 5853 5851 5849 5847 5845 5843 5841 5838 5836 5834 5831 5829 5826 5823 5821 5818 5816 5813 5811 5809 5808 5806 5803 5801 5799 5798 5796 5795 5794 5792 5791 5790 5789 5789 5788 5788 5787 5787 5787 5788
5853 5852 5850 5848 5846 5844 5842 5840 5837 5835 5833 5831 5828 5826 5823 5820 5817 5814 5812 5809 5806 5804 5802 5801 5799 5796 5794 5792 5791 5789 5788 5786 5785 5784 5783 5782 5781 5780 5780 5779 5779 5779 5779
5850 5848 5846 5844 5842 5840 5837 5835 5832 5830 5828 5826 5823 5819 5817 5814 5811 5808 5806 5803 5800 5797 5795 5793 5791 5789 5787 5785 5783 5782 5780 5779 5777 5776 5775 5774 5773 5772 5772 5771 5771 5771 5771
5845 5843 5842 5840 5838 5835 5832 5830 5827 5825 5823 5820 5817 5814 5811 5808 5805 5802 5799 5796 5793 5790 5788 5786 5784 5782 5780 5778 5776 5775 5773 5771 5770 5769 5767 5766 5765 5764 5764 5763 5763 5762 5762
5840 5839 5837 5835 5833 5830 5827 5825 5822 5820 5817 5814 5812 5808 5805 5802 5799 5795 5792 5789 5787 5784 5781 5779 5777 5774 5772 5770 5769 5767 5766 5765 5763 5761 5759 5758 5757 5756 5755 5755 5754 5753 5753
5836 5834 5832 5830 5827 5825 5822 5819 5817 5814 5812 5809 5806 5803 5799 5796 5792 5789 5786 5783 5780 5777 5775 5772 5769 5767 5765 5763 5761 5759 5758 5757 5755 5754 5752 5751 5749 5747 5746 5746 5745 5745 5744
5831 5829 5827 5825 5822 5820 5817 5814 5811 5808 5806 5804 5800 5797 5793 5790 5787 5783 5780 5776 5773 5771 5768 5765 5763 5761 5758 5756 5754 5752 5751 5749 5748 5747 5745 5743 5741 5739 5738 5737 5736 5736 5735
5825 5823 5821 5819 5817 5815 5812 5809 5806 5804 5801 5798 5794 5791 5787 5784 5780 5777 5773 5770 5767 5765 5762 5759 5757 5755 5752 5750 5748 5745 5743 5742 5740 5739 5737 5735 5733 5731 5729 5728 5728 5727 5726
5818 5818 5816 5814 5812 5809 5806 5804 5801 5798 5795 5792 5789 5785 5781 5778 5774 5771 5768 5765 5762 5759 5756 5753 5751 5749 5746 5744 5741 5739 5737 5735 5733 5731 5729 5727 5725 5724 5722 5721 5719 5718 5717